Location: Cherryland
(37.6794°N, 122.1033°W)
Time: 14:51:27
(UTC+00:00)

USA 59 Rocket - Pass Details

Date: 14 December 2025
Orbit: 369 x 1675 km, 63.3° (Epoch: 17 January)

Event Time Altitude Azimuth Distance (km) Brightness Sun altitude
Exits shadow 12:50:33 24° 186° (S) 1,520 2.0 -27.9°
Drops below altitude 10° 12:53:14 10° 171° (S) 2,487 3.3 -27.4°
Sets 12:56:18 0° 165° (SSE) 3,666 4.3 -26.8°
